User: anonymous
Location: Coffee Creek Observatory
(38.8077°N, 94.7179°W)
Time: 19:10:19
(UTC-05:00)
Language:

Lacrosse 4 Rocket - Orbit

View from above orbital plane
View from above orbital plane
View from above satellite
View from above satellite

Ground track
Ground track

The orbit data is extracted from the following two-line orbital elements,

1 26474U 00047B   14264.04237181  .00001285  00000-0  12992-3 0  7436
2 26474 067.9954 080.1347 0062540 337.2070 022.6295 14.93096295765919
Epoch (UTC): 21 September 2014 01:01:00
Eccentricity: 0.0062540
inclination: 67.9954°
perigee height: 545 km
apogee height: 632 km
right ascension of ascending node: 80.1347°
argument of perigee: 337.2070°
revolutions per day: 14.93096295
mean anomaly at epoch: 22.6295°
orbit number at epoch: 76591

The dashed part of the orbit path shows where the satellite is in the earth's shadow,  

DLR